Lid_Strength_Index
10 11 12 11 9 9 10 10 14 10 10 10 9 8 5 5 4 4 4 4 4 4 4 4 4 4 4 3 3 2 3 3 3 3 3 3 4 5 5 5 5 5 5 5
12 10 10 11 10 10 9 9 9 8 9 6 6 6 5 5 5 5 4 4 4 4 4 4 4 4 4 3 3 3 3 3 3 4 4 4 4 5 5 6 5 5 5 5
16 10 10 12 10 9 9 7 8 10 7 5 6 6 6 5 5 5 4 4 4 4 4 4 4 4 4 4 4 4 4 4 4 4 5 5 5 5 5 5 4 5 5 5
15 12 17 9 7 7 8 7 6 6 6 6 6 5 4 4 4 4 4 4 4 4 4 4 4 4 5 5 5 5 4 4 5 5 5 5 5 5 4 5 5 5 6 6
14 14 10 9 8 8 8 8 6 6 6 6 5 5 5 4 3 3 4 4 4 4 5 5 6 6 6 6 6 7 6 6 6 6 6 5 6 5 5 5 6 6 6 5
13 16 16 10 7 6 6 12 6 6 6 6 5 9 8 4 4 4 4 4 5 5 5 6 6 7 7 8 8 8 8 8 7 6 6 7 6 5 6 5 6 5 5 4
13 14 10 7 6 5 13 13 6 6 6 6 8 6 4 4 5 4 4 5 5 6 6 6 7 8 8 9 10 10 10 10 8 7 7 6 5 6 5 6 5 5 5 4
13 14 16 6 6 10 8 6 5 5 5 6 5 4 5 5 5 5 5 6 6 6 7 7 8 9 10 11 11 11 11 10 9 8 7 6 6 6 6 5 5 5 5 4
10 11 7 5 6 5 5 6 5 5 4 4 5 5 5 5 5 5 6 6 6 6 7 7 8 9 11 12 12 13 12 11 10 8 7 6 7 7 7 6 5 6 5 5
9 8 7 6 4 4 4 4 4 4 4 4 5 5 6 6 6 7 7 7 6 6 6 8 7 9 11 12 12 13 13 12 11 9 9 7 7 7 7 7 7 6 5 6
10 7 7 6 5 4 4 3 4 4 5 5 5 6 6 7 7 7 7 7 7 7 8 9 9 10 12 12 12 13 14 13 13 11 10 9 7 7 7 5 7 8 6 8
10 6 7 7 5 4 4 5 5 6 6 6 6 7 7 8 7 8 8 7 8 8 9 10 11 12 12 12 12 13 14 15 14 12 11 10 10 8 9 9 10 11 10 11
7 5 5 5 4 3 4 4 4 5 6 6 6 6 7 8 8 7 7 9 9 9 11 12 12 12 12 12 12 12 13 14 15 13 12 12 13 11 11 7 9 10 11 11
4 5 6 5 6 4 3 3 4 4 5 6 7 7 7 7 7 8 9 9 8 10 11 12 12 13 12 12 11 11 11 13 13 14 14 14 13 13 14 11 10 8 9 11
4 4 4 4 3 3 2 3 5 6 7 7 7 7 7 7 9 9 9 8 10 11 12 12 13 12 12 12 11 10 9 10 10 12 14 14 14 13 14 14 12 11 9 10
4 4 4 4 4 3 4 5 6 6 7 6 6 7 7 7 8 9 9 10 11 12 11 11 12 11 10 11 10 9 8 11 10 9 9 10 12 14 14 14 15 14 13 12
6 6 5 5 4 4 4 5 5 6 6 6 6 6 7 6 7 8 8 9 10 10 10 11 10 9 9 10 9 9 9 9 11 9 9 9 10 10 12 13 14 15 14 13
3 3 3 4 4 4 5 5 6 6 6 6 6 6 6 7 8 8 8 8 9 9 9 9 10 9 9 10 10 9 9 10 10 10 10 10 10 9 9 11 11 13 15 14
3 3 3 3 4 5 5 6 6 6 6 6 6 7 7 7 8 8 8 9 10 10 10 9 10 9 9 11 11 9 10 10 10 10 10 11 10 10 10 10 10 11 12 15
3 3 3 4 5 5 6 6 6 7 6 6 6 7 7 8 8 8 8 10 10 10 9 10 10 10 10 10 12 10 10 10 11 11 11 11 11 11 10 11 10 10 11 11
3 4 5 6 6 6 6 6 7 7 7 6 7 8 8 8 9 9 9 10 10 10 10 11 11 11 10 11 10 9 10 11 11 12 12 12 12 12 11 11 11 11 11 11
4 5 6 6 6 6 6 6 7 7 7 7 7 8 8 8 8 9 10 10 10 13 10 11 11 13 12 14 9 10 10 10 11 12 13 13 13 13 13 12 12 11 11 11
5 6 6 6 6 6 6 7 7 7 7 7 7 7 8 8 9 9 11 10 9 10 10 11 13 14 14 9 9 9 10 10 11 12 12 13 13 13 14 13 13 12 12 12
5 5 5 5 6 6 7 7 7 7 7 7 7 7 7 8 8 8 9 12 12 12 10 11 12 13 14 9 9 9 10 10 11 11 12 13 12 12 13 14 14 13 13 12
5 5 5 6 6 7 7 7 7 7 7 7 7 7 8 8 8 8 8 9 12 10 9 14 13 12 9 9 9 10 10 10 11 11 11 12 12 12 13 13 14 14 14 13
5 6 6 5 6 6 6 6 7 7 7 8 8 8 8 8 8 7 8 10 9 10 9 9 10 10 9 10 9 10 10 10 10 10 10 11 11 11 12 12 12 12 12 13
4 6 5 5 5 6 6 6 7 7 7 8 9 8 8 8 9 9 11 8 8 9 9 9 9 10 10 9 9 9 9 9 10 9 9 10 10 11 11 11 10 11 11 11